Weather History for Hazen, ND

Change the Weather History Date:

Saturday, September 15, 2012

  Actual Average (KN60) Record (KN60)
Temperature  
Mean Temperature 66 °F -  
Max Temperature 89 °F 68 °F 88 °F (2012)
Min Temperature 44 °F 44 °F 33 °F (1999)
Cooling Degree Days 2    
Growing Degree Days 16 (Base 50)    
Moisture  
Dew Point 31 °F    
Average Humidity 32    
Maximum Humidity 62    
Minimum Humidity 9    
Precipitation  
Precipitation 0.00 in - - ()
Sea Level Pressure  
Sea Level Pressure 29.97 in    
Wind  
Wind Speed 10 mph (West)    
Max Wind Speed 22 mph    
Max Gust Speed 29 mph    
Visibility 10 miles    
Events      
Averages and records for this station are not official NWS values.
T = Trace of Precipitation, MM = Missing Value Source: NWS Daily Summary

Daily Weather History Graph

Daily Weather History Graph

Search for Another Location

Airport:

Trip Planner

Search our weather history database for the weather conditions in past years. The results will help you decide how hot, cold, wet, or windy it might be!

Date:

Astronomy

Sep. 15, 2012 Rise Set
Actual Time 7:24 AM CDT 7:57 PM CDT
Civil Twilight 6:53 AM CDT 8:27 PM CDT
Nautical Twilight 6:17 AM CDT 9:04 PM CDT
Astronomical Twilight 5:39 AM CDT 9:42 PM CDT
Moon 6:59 AM CDT (9/15) 7:24 PM CDT (9/15)
Length of Visible Light 13h 34m
Length of Day
12h 32m
Waning Crescent, 0% of the Moon is Illuminated
Sep 15
Waning Crescent
Sep 15
New
Sep 22
First Quarter
Sep 29
Full
Oct 8
Last Quarter

Hourly Weather History & Observations

Time (CDT) Temp. Dew Point Humidity Pressure Visibility Wind Dir Wind Speed Gust Speed Precip Events Conditions
12:15 AM 59.0 °F 28.4 °F 31% 30.08 in 10.0 mi South 16.1 mph 20.7 mph N/A   Clear
12:35 AM 60.8 °F 28.4 °F 29% 30.07 in 10.0 mi South 16.1 mph 21.9 mph N/A   Clear
12:55 AM 60.8 °F 28.4 °F 29% 30.06 in 10.0 mi South 13.8 mph - N/A   Clear
1:15 AM 60.8 °F 28.4 °F 29% 30.06 in 10.0 mi South 15.0 mph 20.7 mph N/A   Mostly Cloudy
1:35 AM 59.0 °F 28.4 °F 31% 30.05 in 10.0 mi South 12.7 mph - N/A   Overcast
1:55 AM 59.0 °F 28.4 °F 31% 30.04 in 10.0 mi South 16.1 mph 21.9 mph N/A   Overcast
2:15 AM 60.8 °F 28.4 °F 29% 30.03 in 10.0 mi South 18.4 mph 23.0 mph N/A   Overcast
2:35 AM 59.0 °F 28.4 °F 31% 30.02 in 10.0 mi South 18.4 mph 23.0 mph N/A   Overcast
3:15 AM 59.0 °F 28.4 °F 31% 30.01 in 10.0 mi South 17.3 mph - N/A   Overcast
3:35 AM 57.2 °F 28.4 °F 33% 30.01 in 10.0 mi South 9.2 mph 17.3 mph N/A   Mostly Cloudy
3:55 AM 57.2 °F 28.4 °F 33% 30.01 in 10.0 mi SW 4.6 mph - N/A   Partly Cloudy
4:15 AM 57.2 °F 28.4 °F 33% 30.01 in 10.0 mi SW 4.6 mph - N/A   Partly Cloudy
4:35 AM 57.2 °F 28.4 °F 33% 30.00 in 10.0 mi SSW 3.5 mph - N/A   Partly Cloudy
4:55 AM 51.8 °F 28.4 °F 41% 29.99 in 10.0 mi Calm Calm - N/A   Scattered Clouds
5:15 AM 53.6 °F 28.4 °F 38% 29.98 in 10.0 mi Calm Calm - N/A   Mostly Cloudy
5:35 AM 57.2 °F 28.4 °F 33% 29.98 in 10.0 mi WNW 4.6 mph - N/A   Scattered Clouds
5:55 AM 57.2 °F 28.4 °F 33% 29.98 in 10.0 mi Calm Calm - N/A   Clear
6:15 AM 55.4 °F 28.4 °F 36% 29.98 in 10.0 mi West 3.5 mph - N/A   Clear
6:35 AM 55.4 °F 28.4 °F 36% 29.97 in 10.0 mi SW 4.6 mph - N/A   Clear
6:55 AM 53.6 °F 28.4 °F 38% 29.97 in 10.0 mi WSW 3.5 mph - N/A   Clear
7:15 AM 48.2 °F 30.2 °F 50% 29.97 in 10.0 mi Calm Calm - N/A   Clear
7:35 AM 46.4 °F 28.4 °F 50% 29.97 in 10.0 mi Calm Calm - N/A   Clear
7:55 AM 44.6 °F 30.2 °F 57% 29.97 in 10.0 mi Calm Calm - N/A   Clear
8:15 AM 46.4 °F 32.0 °F 57% 29.96 in 10.0 mi Calm Calm - N/A   Clear
8:35 AM 50.0 °F 32.0 °F 50% 29.97 in 10.0 mi WNW 3.5 mph - N/A   Clear
8:55 AM 50.0 °F 32.0 °F 50% 29.96 in 9.0 mi Calm Calm - N/A   Clear
9:15 AM 51.8 °F 32.0 °F 47% 29.95 in 8.0 mi Calm Calm - N/A   Clear
9:35 AM 59.0 °F 32.0 °F 36% 29.95 in 10.0 mi SW 5.8 mph - N/A   Clear
9:55 AM 62.6 °F 32.0 °F 32% 29.95 in 10.0 mi SW 8.1 mph - N/A   Clear
10:15 AM 62.6 °F 32.0 °F 32% 29.94 in 10.0 mi West 6.9 mph - N/A   Clear
10:35 AM 64.4 °F 32.0 °F 30% 29.95 in 10.0 mi West 8.1 mph - N/A   Clear
10:55 AM 68.0 °F 32.0 °F 26% 29.94 in 10.0 mi WSW 9.2 mph - N/A   Clear
11:15 AM 68.0 °F 32.0 °F 26% 29.94 in 10.0 mi WSW 8.1 mph - N/A   Clear
11:35 AM 69.8 °F 32.0 °F 25% 29.93 in 10.0 mi WSW 8.1 mph - N/A   Clear
11:55 AM 73.4 °F 32.0 °F 22% 29.93 in 10.0 mi WSW 11.5 mph - N/A   Clear
12:15 PM 75.2 °F 32.0 °F 21% 29.92 in 10.0 mi West 9.2 mph - N/A   Clear
12:35 PM 77.0 °F 32.0 °F 19% 29.92 in 10.0 mi West 8.1 mph - N/A   Clear
12:55 PM 80.6 °F 32.0 °F 17% 29.91 in 10.0 mi West 9.2 mph - N/A   Clear
1:15 PM 84.2 °F 30.2 °F 14% 29.91 in 10.0 mi West 15.0 mph 18.4 mph N/A   Clear
2:15 PM 87.8 °F 30.2 °F 13% 29.91 in 10.0 mi NW 12.7 mph 17.3 mph N/A   Clear
2:35 PM 84.2 °F 24.8 °F 11% 29.91 in 10.0 mi NW 17.3 mph 21.9 mph N/A   Clear
2:55 PM 89.6 °F 24.8 °F 10% 29.91 in 10.0 mi WNW 21.9 mph 28.8 mph N/A   Clear
3:15 PM 89.6 °F 23.0 °F 9% 29.91 in 10.0 mi NW 21.9 mph 27.6 mph N/A   Clear
3:35 PM 86.0 °F 26.6 °F 12% 29.92 in 10.0 mi NW 19.6 mph 26.5 mph N/A   Clear
3:55 PM 84.2 °F 26.6 °F 12% 29.92 in 10.0 mi NW 18.4 mph 28.8 mph N/A   Clear
4:15 PM 84.2 °F 28.4 °F 13% 29.93 in 10.0 mi NW 19.6 mph 27.6 mph N/A   Clear
4:35 PM 84.2 °F 28.4 °F 13% 29.93 in 10.0 mi NW 16.1 mph 24.2 mph N/A   Clear
4:55 PM 84.2 °F 32.0 °F 15% 29.93 in 10.0 mi NW 19.6 mph 26.5 mph N/A   Clear
5:15 PM 84.2 °F 28.4 °F 13% 29.93 in 10.0 mi NNW 18.4 mph 27.6 mph N/A   Clear
5:35 PM 82.4 °F 32.0 °F 16% 29.94 in 10.0 mi NNW 16.1 mph 25.3 mph N/A   Clear
5:55 PM 82.4 °F 32.0 °F 16% 29.94 in 10.0 mi NNW 15.0 mph 23.0 mph N/A   Clear
6:15 PM 80.6 °F 32.0 °F 17% 29.95 in 10.0 mi North 12.7 mph - N/A   Clear
6:35 PM 78.8 °F 33.8 °F 20% 29.95 in 10.0 mi North 12.7 mph 17.3 mph N/A   Clear
6:55 PM 77.0 °F 35.6 °F 22% 29.96 in 10.0 mi NNW 10.4 mph - N/A   Clear
7:15 PM 75.2 °F 35.6 °F 24% 29.96 in 10.0 mi NW 5.8 mph - N/A   Clear
7:35 PM 71.6 °F 37.4 °F 29% 29.96 in 10.0 mi NW 3.5 mph - N/A   Clear
7:55 PM 66.2 °F 37.4 °F 35% 29.96 in 10.0 mi NNW 3.5 mph - N/A   Clear
8:15 PM 66.2 °F 37.4 °F 35% 29.97 in 4.0 mi Calm Calm - N/A   Haze
8:35 PM 62.6 °F 37.4 °F 39% 29.97 in 10.0 mi Calm Calm - N/A   Clear
8:55 PM 57.2 °F 37.4 °F 48% 29.98 in 10.0 mi Calm Calm - N/A   Clear
9:15 PM 55.4 °F 37.4 °F 51% 29.99 in 10.0 mi ENE 3.5 mph - N/A   Clear
9:35 PM 62.6 °F 37.4 °F 39% 30.00 in 10.0 mi ENE 3.5 mph - N/A   Clear
9:55 PM 57.2 °F 37.4 °F 48% 30.00 in 10.0 mi NE 3.5 mph - N/A   Clear
10:15 PM 55.4 °F 37.4 °F 51% 30.00 in 10.0 mi Calm Calm - N/A   Clear
10:35 PM 53.6 °F 37.4 °F 54% 30.01 in 10.0 mi SSE 3.5 mph - N/A   Clear
10:55 PM 51.8 °F 37.4 °F 58% 30.02 in 10.0 mi South 4.6 mph - N/A   Clear
11:15 PM 50.0 °F 37.4 °F 62% 30.02 in 10.0 mi SSE 4.6 mph - N/A   Clear
11:35 PM 50.0 °F 37.4 °F 62% 30.02 in 10.0 mi Calm Calm - N/A   Partly Cloudy
11:55 PM 50.0 °F 37.4 °F 62% 30.02 in 10.0 mi Calm Calm - N/A   Scattered Clouds